Location: Newark
(39.9581°N, 97.2014°W)
Time: 02:45:39
(UTC+00:00)

Altair - All Passes

Search period start: 23 February 2020 00:00
Search period end: 04 March 2020 00:00
Orbit: 1502 x 1682 km, 47.2° (Epoch: 22 February)

Date Brightness Start Highest point End Pass type
(mag) Time Alt. Az. Time Alt. Az. Time Alt. Az.
23 Feb - 05:39:12 10° SSW 05:47:35 39° SE 05:56:13 10° ENE night (unlit)
23 Feb - 07:42:18 10° WSW 07:51:45 83° NNW 08:01:36 10° ENE visible
23 Feb - 09:48:01 10° W 09:57:27 57° N 10:07:15 10° ENE visible
23 Feb - 11:53:33 10° WNW 12:03:23 73° NNE 12:13:31 10° ESE visible
23 Feb - 13:58:35 10° WNW 14:08:06 52° SW 14:17:47 10° SSE daylight
23 Feb - 16:07:15 10° W 16:11:16 13° WSW 16:15:18 10° SW daylight
24 Feb - 05:14:22 10° SSW 05:22:31 36° SE 05:30:54 10° ENE night (unlit)
24 Feb - 07:17:08 10° WSW 07:26:32 86° NNW 07:36:22 10° ENE visible
24 Feb - 09:22:46 10° W 09:32:10 57° N 09:41:56 10° ENE visible
24 Feb - 11:28:21 10° WNW 11:38:08 71° NNE 11:48:13 10° ESE visible
24 Feb - 13:33:22 10° WNW 13:42:57 56° SW 13:52:45 10° SSE daylight
24 Feb - 15:41:12 10° W 15:46:13 15° WSW 15:51:16 10° SSW daylight
25 Feb - 04:49:34 10° S 04:57:27 33° SE 05:05:32 10° ENE night (unlit)
25 Feb - 06:51:59 10° WSW 07:01:21 90° SSE 07:11:09 10° ENE visible
25 Feb - 08:57:31 10° W 09:06:52 57° N 09:16:38 10° ENE visible
25 Feb - 11:03:09 10° WNW 11:12:53 68° NNE 11:22:56 10° ESE visible
25 Feb - 13:08:08 10° WNW 13:17:48 60° SW 13:27:41 10° SE daylight
25 Feb - 15:15:24 10° W 15:21:10 17° WSW 15:27:00 10° SSW daylight
26 Feb - 04:24:48 10° S 04:32:24 30° SE 04:40:11 10° ENE night (unlit)
26 Feb - 06:26:51 10° SW 06:36:11 85° SSE 06:45:55 10° ENE visible
26 Feb - 08:32:15 10° W 08:41:36 58° N 08:51:19 10° ENE visible
26 Feb - 10:37:57 10° WNW 10:47:37 66° NNE 10:57:37 10° E visible
26 Feb - 12:42:56 10° WNW 12:52:38 64° SW 13:02:35 10° SE visible
26 Feb - 14:49:43 10° W 14:56:07 19° SW 15:02:36 10° SSW daylight
27 Feb - 04:00:05 10° S 04:07:22 27° SE 04:14:47 10° ENE night (unlit)
27 Feb - 06:01:44 10° SW 06:11:01 81° SSE 06:20:41 10° ENE visible
27 Feb - 08:07:00 10° W 08:16:20 59° N 08:26:02 10° ENE visible
27 Feb - 10:12:45 10° WNW 10:22:21 64° NNE 10:32:18 10° E visible
27 Feb - 12:17:44 10° WNW 12:27:28 69° SW 12:37:28 10° SE visible
27 Feb - 14:24:10 10° W 14:31:03 22° SW 14:38:04 10° S daylight
28 Feb - 03:35:26 10° S 03:42:20 24° SE 03:49:20 10° ENE night (unlit)
28 Feb - 05:36:38 10° SW 05:45:52 76° SE 05:55:27 10° ENE night (unlit)
28 Feb - 07:41:46 10° W 07:51:04 60° NNW 08:00:45 10° ENE visible
28 Feb - 09:47:32 10° WNW 09:57:05 62° NNE 10:06:58 10° E visible
28 Feb - 11:52:32 10° WNW 12:02:17 73° SW 12:12:20 10° SE visible
28 Feb - 13:58:40 10° W 14:05:59 24° SW 14:13:27 10° S daylight
29 Feb - 03:10:51 10° S 03:17:19 22° SE 03:23:51 10° E visible
29 Feb - 05:11:33 10° SW 05:20:43 72° SE 05:30:14 10° ENE night (unlit)
29 Feb - 07:16:31 10° W 07:25:48 62° NNW 07:35:28 10° ENE visible
29 Feb - 09:22:20 10° WNW 09:31:48 61° NNE 09:41:38 10° E visible
29 Feb - 11:27:21 10° WNW 11:37:06 77° SW 11:47:10 10° SE visible
29 Feb - 13:33:14 10° WNW 13:40:55 26° SW 13:48:45 10° S daylight
01 Mar - 02:46:21 10° SSE 02:52:18 19° SE 02:58:18 10° E visible
01 Mar - 04:46:30 10° SW 04:55:35 67° SE 05:05:01 10° ENE night (unlit)
01 Mar - 06:51:16 10° W 07:00:33 63° NNW 07:10:12 10° ENE visible
01 Mar - 08:57:07 10° WNW 09:06:32 59° N 09:16:18 10° E visible
01 Mar - 11:02:10 10° WNW 11:11:55 82° SSW 11:22:00 10° SE visible
01 Mar - 13:07:50 10° WNW 13:15:50 29° SW 13:24:00 10° S daylight
02 Mar - 02:21:56 10° SSE 02:27:16 17° SE 02:32:39 10° E visible
02 Mar - 04:21:27 10° SW 04:30:28 63° SE 04:39:46 10° ENE visible
02 Mar - 06:26:03 10° W 06:35:18 65° NNW 06:44:56 10° ENE visible
02 Mar - 08:31:54 10° WNW 08:41:15 58° N 08:50:59 10° E visible
02 Mar - 10:36:59 10° WNW 10:46:43 86° SSW 10:56:48 10° SE visible
02 Mar - 12:42:28 10° WNW 12:50:44 32° SW 12:59:13 10° S daylight
03 Mar - 01:57:41 10° SSE 02:02:16 15° ESE 02:06:52 10° E visible
03 Mar - 03:56:26 10° SW 04:05:22 58° SE 04:14:32 10° ENE visible
03 Mar - 06:00:49 10° W 06:10:04 67° NNW 06:19:41 10° ENE visible
03 Mar - 08:06:40 10° WNW 08:15:59 57° N 08:25:39 10° E visible
03 Mar - 10:11:49 10° WNW 10:21:31 90° ENE 10:31:34 10° ESE visible
03 Mar - 12:17:09 10° WNW 12:25:39 35° SW 12:34:22 10° SSE visible
